Time,TemperatureF,DewpointF,PressureIn,WindDirection,WindDirectionDegrees,WindSpeedMPH,WindSpeedGustMPH,Humidity,HourlyPrecipIn,Conditions,Clouds,dailyrainin,SoftwareType,DateUTC
2013-03-05 00:11:00,34.1,19.0,30.05,West,270,2.0,3.0,54,0.00,,,0.00,weatherlink.com 1.10,2013-03-05 05:11:00,
2013-03-05 00:26:00,33.6,19.0,30.05,West,277,1.0,2.0,55,0.00,,,0.00,weatherlink.com 1.10,2013-03-05 05:26:00,
2013-03-05 00:41:00,33.3,19.0,30.06,West,266,1.0,3.0,56,0.00,,,0.00,weatherlink.com 1.10,2013-03-05 05:41:00,
2013-03-05 00:56:00,33.0,20.0,30.06,WNW,286,1.0,2.0,59,0.00,,,0.00,weatherlink.com 1.10,2013-03-05 05:56:00,
2013-03-05 01:11:00,32.8,19.0,30.07,West,264,1.0,1.0,57,0.00,,,0.00,weatherlink.com 1.10,2013-03-05 06:11:00,
2013-03-05 01:26:00,32.5,19.0,30.07,WNW,295,0.0,3.0,59,0.00,,,0.00,weatherlink.com 1.10,2013-03-05 06:26:00,
2013-03-05 01:41:00,32.5,19.0,30.07,WNW,295,1.0,3.0,59,0.00,,,0.00,weatherlink.com 1.10,2013-03-05 06:41:00,
2013-03-05 01:56:00,32.6,20.0,30.07,WNW,284,2.0,4.0,59,0.00,,,0.00,weatherlink.com 1.10,2013-03-05 06:56:00,
2013-03-05 02:11:00,32.7,20.0,30.07,WNW,301,1.0,4.0,60,0.00,,,0.00,weatherlink.com 1.10,2013-03-05 07:11:00,
2013-03-05 02:26:00,32.2,24.0,30.07,NNW,344,0.0,1.0,71,0.00,,,0.00,weatherlink.com 1.10,2013-03-05 07:26:00,
2013-03-05 02:42:00,31.4,23.0,30.06,NNW,344,0.0,0.0,71,0.00,,,0.00,weatherlink.com 1.10,2013-03-05 07:42:00,
2013-03-05 02:57:00,31.1,22.0,30.06,NNW,345,0.0,0.0,68,0.00,,,0.00,weatherlink.com 1.10,2013-03-05 07:57:00,
2013-03-05 03:12:00,30.3,20.0,30.07,West,269,1.0,1.0,65,0.00,,,0.00,weatherlink.com 1.10,2013-03-05 08:12:00,
2013-03-05 03:27:00,31.0,21.0,30.07,West,262,0.0,1.0,66,0.00,,,0.00,weatherlink.com 1.10,2013-03-05 08:27:00,
2013-03-05 03:42:00,29.9,20.0,30.07,West,277,1.0,2.0,68,0.00,,,0.00,weatherlink.com 1.10,2013-03-05 08:42:00,
2013-03-05 03:57:00,29.8,21.0,30.07,West,277,0.0,1.0,71,0.00,,,0.00,weatherlink.com 1.10,2013-03-05 08:57:00,
2013-03-05 04:12:00,30.3,20.0,30.08,West,277,1.0,2.0,66,0.00,,,0.00,weatherlink.com 1.10,2013-03-05 09:12:00,
2013-03-05 04:27:00,30.2,21.0,30.09,West,278,0.0,1.0,68,0.00,,,0.00,weatherlink.com 1.10,2013-03-05 09:27:00,
2013-03-05 04:42:00,29.3,21.0,30.09,West,278,0.0,0.0,70,0.00,,,0.00,weatherlink.com 1.10,2013-03-05 09:42:00,
2013-03-05 04:57:00,28.9,22.0,30.09,West,278,0.0,1.0,76,0.00,,,0.00,weatherlink.com 1.10,2013-03-05 09:57:00,
2013-03-05 05:12:00,30.1,20.0,30.09,West,278,0.0,2.0,66,0.00,,,0.00,weatherlink.com 1.10,2013-03-05 10:12:00,
2013-03-05 05:27:00,29.0,22.0,30.10,West,278,0.0,0.0,74,0.00,,,0.00,weatherlink.com 1.10,2013-03-05 10:27:00,
2013-03-05 05:42:00,28.1,22.0,30.09,West,278,0.0,1.0,77,0.00,,,0.00,weatherlink.com 1.10,2013-03-05 10:42:00,
2013-03-05 05:57:00,27.5,22.0,30.09,West,278,0.0,1.0,79,0.00,,,0.00,weatherlink.com 1.10,2013-03-05 10:57:00,
2013-03-05 06:12:00,27.6,23.0,30.09,NNE,30,3.0,3.0,82,0.00,,,0.00,weatherlink.com 1.10,2013-03-05 11:12:00,
2013-03-05 06:27:00,29.7,23.0,30.09,West,262,0.0,3.0,75,0.00,,,0.00,weatherlink.com 1.10,2013-03-05 11:27:00,
2013-03-05 06:42:00,28.8,21.0,30.09,West,271,1.0,2.0,72,0.00,,,0.00,weatherlink.com 1.10,2013-03-05 11:42:00,
2013-03-05 06:57:00,28.6,23.0,30.10,NNW,333,1.0,1.0,79,0.00,,,0.00,weatherlink.com 1.10,2013-03-05 11:57:00,
2013-03-05 07:12:00,29.4,22.0,30.10,NNE,23,1.0,2.0,73,0.00,,,0.00,weatherlink.com 1.10,2013-03-05 12:12:00,
2013-03-05 07:27:00,31.7,22.0,30.10,NW,321,1.0,2.0,67,0.00,,,0.00,weatherlink.com 1.10,2013-03-05 12:27:00,
2013-03-05 07:42:00,32.4,22.0,30.11,WNW,283,2.0,3.0,65,0.00,,,0.00,weatherlink.com 1.10,2013-03-05 12:42:00,
2013-03-05 07:57:00,33.0,22.0,30.11,WNW,291,1.0,4.0,63,0.00,,,0.00,weatherlink.com 1.10,2013-03-05 12:57:00,
2013-03-05 08:12:00,33.6,21.0,30.11,NNW,332,4.0,5.0,61,0.00,,,0.00,weatherlink.com 1.10,2013-03-05 13:12:00,
2013-03-05 08:27:00,34.0,20.0,30.11,NE,46,7.0,7.0,57,0.00,,,0.00,weatherlink.com 1.10,2013-03-05 13:27:00,
2013-03-05 08:42:00,34.3,20.0,30.11,NNE,23,5.0,7.0,56,0.00,,,0.00,weatherlink.com 1.10,2013-03-05 13:42:00,
2013-03-05 08:57:00,34.8,20.0,30.11,NE,49,7.0,8.0,55,0.00,,,0.00,weatherlink.com 1.10,2013-03-05 13:57:00,
2013-03-05 09:12:00,34.7,22.0,30.11,ENE,72,4.0,5.0,59,0.00,,,0.00,weatherlink.com 1.10,2013-03-05 14:12:00,
2013-03-05 09:27:00,34.9,23.0,30.11,East,85,2.0,6.0,62,0.00,,,0.00,weatherlink.com 1.10,2013-03-05 14:27:00,
2013-03-05 09:42:00,34.7,23.0,30.10,East,87,5.0,6.0,62,0.00,,,0.00,weatherlink.com 1.10,2013-03-05 14:42:00,
2013-03-05 09:57:00,35.1,23.0,30.10,East,80,6.0,7.0,61,0.00,,,0.00,weatherlink.com 1.10,2013-03-05 14:57:00,
2013-03-05 10:12:00,35.3,24.0,30.09,East,82,6.0,7.0,63,0.00,,,0.00,weatherlink.com 1.10,2013-03-05 15:12:00,
2013-03-05 10:27:00,35.6,23.0,30.09,ENE,78,9.0,9.0,61,0.00,,,0.00,weatherlink.com 1.10,2013-03-05 15:27:00,
2013-03-05 10:42:00,34.9,23.0,30.08,East,85,10.0,11.0,63,0.00,,,0.00,weatherlink.com 1.10,2013-03-05 15:42:00,
2013-03-05 10:58:00,34.9,24.0,30.08,East,87,8.0,9.0,64,0.00,,,0.00,weatherlink.com 1.10,2013-03-05 15:58:00,
2013-03-05 11:13:00,34.7,25.0,30.07,East,97,10.0,11.0,68,0.00,,,0.00,weatherlink.com 1.10,2013-03-05 16:13:00,
2013-03-05 11:28:00,34.3,24.0,30.06,East,87,9.0,11.0,66,0.00,,,0.00,weatherlink.com 1.10,2013-03-05 16:28:00,
2013-03-05 11:43:00,34.5,23.0,30.07,East,91,6.0,10.0,64,0.00,,,0.00,weatherlink.com 1.10,2013-03-05 16:43:00,
2013-03-05 11:58:00,35.0,24.0,30.07,East,79,9.0,9.0,65,0.00,,,0.00,weatherlink.com 1.10,2013-03-05 16:58:00,
2013-03-05 12:13:00,35.1,24.0,30.06,ENE,78,9.0,10.0,64,0.00,,,0.00,weatherlink.com 1.10,2013-03-05 17:13:00,
2013-03-05 12:28:00,35.5,24.0,30.05,East,80,10.0,10.0,62,0.00,,,0.00,weatherlink.com 1.10,2013-03-05 17:28:00,
2013-03-05 12:43:00,36.3,22.0,30.04,ENE,78,9.0,9.0,57,0.00,,,0.00,weatherlink.com 1.10,2013-03-05 17:43:00,
2013-03-05 12:58:00,36.8,24.0,30.03,ENE,72,10.0,10.0,61,0.00,,,0.00,weatherlink.com 1.10,2013-03-05 17:58:00,
2013-03-05 13:13:00,36.8,26.0,30.02,ENE,73,8.0,9.0,64,0.00,,,0.00,weatherlink.com 1.10,2013-03-05 18:13:00,
2013-03-05 13:28:00,37.7,26.0,30.02,East,93,5.0,8.0,63,0.00,,,0.00,weatherlink.com 1.10,2013-03-05 18:28:00,
2013-03-05 13:43:00,38.7,24.0,30.02,ESE,114,5.0,8.0,56,0.00,,,0.00,weatherlink.com 1.10,2013-03-05 18:43:00,
2013-03-05 13:58:00,39.0,25.0,30.01,ESE,111,4.0,9.0,57,0.00,,,0.00,weatherlink.com 1.10,2013-03-05 18:58:00,
2013-03-05 14:13:00,38.8,25.0,30.01,East,90,5.0,8.0,57,0.00,,,0.00,weatherlink.com 1.10,2013-03-05 19:13:00,
2013-03-05 14:28:00,39.3,25.0,30.00,ESE,114,5.0,11.0,58,0.00,,,0.00,weatherlink.com 1.10,2013-03-05 19:28:00,
2013-03-05 14:43:00,40.1,24.0,30.00,ESE,119,7.0,9.0,53,0.00,,,0.00,weatherlink.com 1.10,2013-03-05 19:43:00,
2013-03-05 14:58:00,40.3,24.0,30.00,SE,141,9.0,11.0,52,0.00,,,0.00,weatherlink.com 1.10,2013-03-05 19:58:00,
2013-03-05 15:13:00,40.2,25.0,29.99,ESE,104,7.0,12.0,54,0.00,,,0.00,weatherlink.com 1.10,2013-03-05 20:13:00,
2013-03-05 15:28:00,40.8,23.0,29.98,ESE,114,6.0,11.0,49,0.00,,,0.00,weatherlink.com 1.10,2013-03-05 20:28:00,
2013-03-05 15:43:00,41.0,22.0,29.97,ESE,105,9.0,11.0,47,0.00,,,0.00,weatherlink.com 1.10,2013-03-05 20:43:00,
2013-03-05 15:58:00,41.6,23.0,29.98,SE,133,5.0,10.0,48,0.00,,,0.00,weatherlink.com 1.10,2013-03-05 20:58:00,
2013-03-05 16:13:00,41.9,21.0,29.99,SE,135,7.0,9.0,44,0.00,,,0.00,weatherlink.com 1.10,2013-03-05 21:13:00,
2013-03-05 16:28:00,41.7,22.0,29.98,ESE,122,4.0,8.0,46,0.00,,,0.00,weatherlink.com 1.10,2013-03-05 21:28:00,
2013-03-05 16:43:00,41.7,22.0,29.98,SE,136,6.0,8.0,46,0.00,,,0.00,weatherlink.com 1.10,2013-03-05 21:43:00,
2013-03-05 16:58:00,41.7,23.0,29.99,ESE,121,4.0,6.0,48,0.00,,,0.00,weatherlink.com 1.10,2013-03-05 21:58:00,
2013-03-05 17:13:00,41.7,23.0,29.99,SSE,148,3.0,4.0,47,0.00,,,0.00,weatherlink.com 1.10,2013-03-05 22:13:00,
2013-03-05 17:28:00,41.7,23.0,29.99,SSE,152,1.0,3.0,48,0.00,,,0.00,weatherlink.com 1.10,2013-03-05 22:28:00,
2013-03-05 17:43:00,41.7,23.0,29.99,SE,128,2.0,3.0,47,0.00,,,0.00,weatherlink.com 1.10,2013-03-05 22:43:00,
2013-03-05 17:58:00,41.4,25.0,29.98,SSW,204,5.0,5.0,53,0.00,,,0.00,weatherlink.com 1.10,2013-03-05 22:58:00,
2013-03-05 18:13:00,41.1,25.0,29.98,SSW,211,2.0,3.0,54,0.00,,,0.00,weatherlink.com 1.10,2013-03-05 23:13:00,
2013-03-05 18:28:00,41.0,25.0,29.98,SSW,205,0.0,4.0,53,0.00,,,0.00,weatherlink.com 1.10,2013-03-05 23:28:00,
2013-03-05 18:43:00,40.9,26.0,29.98,SSE,149,1.0,1.0,56,0.00,,,0.00,weatherlink.com 1.10,2013-03-05 23:43:00,
2013-03-05 18:59:00,40.8,27.0,29.97,SSE,149,1.0,2.0,58,0.00,,,0.00,weatherlink.com 1.10,2013-03-05 23:59:00,
2013-03-05 19:14:00,40.9,25.0,29.97,South,181,4.0,4.0,54,0.00,,,0.00,weatherlink.com 1.10,2013-03-06 00:14:00,
2013-03-05 19:29:00,40.9,26.0,29.96,SSE,160,4.0,6.0,55,0.00,,,0.00,weatherlink.com 1.10,2013-03-06 00:29:00,
2013-03-05 19:44:00,40.9,27.0,29.96,South,177,1.0,4.0,59,0.00,,,0.00,weatherlink.com 1.10,2013-03-06 00:44:00,
2013-03-05 19:59:00,40.7,28.0,29.95,South,187,2.0,3.0,60,0.00,,,0.00,weatherlink.com 1.10,2013-03-06 00:59:00,
2013-03-05 20:14:00,40.6,28.0,29.96,SSE,155,4.0,7.0,62,0.00,,,0.00,weatherlink.com 1.10,2013-03-06 01:14:00,
2013-03-05 20:29:00,40.6,28.0,29.95,SSE,159,6.0,7.0,62,0.00,,,0.00,weatherlink.com 1.10,2013-03-06 01:29:00,
2013-03-05 20:44:00,40.6,30.0,29.95,South,169,7.0,10.0,66,0.00,,,0.00,weatherlink.com 1.10,2013-03-06 01:44:00,
2013-03-05 20:59:00,40.6,32.0,29.95,ESE,115,6.0,9.0,71,0.00,,,0.00,weatherlink.com 1.10,2013-03-06 01:59:00,
2013-03-05 21:14:00,40.6,32.0,29.94,SE,139,7.0,12.0,72,0.00,,,0.00,weatherlink.com 1.10,2013-03-06 02:14:00,
2013-03-05 21:29:00,40.4,32.0,29.94,SSE,147,7.0,13.0,72,0.00,,,0.00,weatherlink.com 1.10,2013-03-06 02:29:00,
2013-03-05 21:44:00,40.0,32.0,29.93,ESE,123,11.0,15.0,72,0.00,,,0.00,weatherlink.com 1.10,2013-03-06 02:44:00,
2013-03-05 21:59:00,39.1,31.0,29.92,SE,142,16.0,19.0,73,0.00,,,0.00,weatherlink.com 1.10,2013-03-06 02:59:00,
2013-03-05 22:14:00,38.6,31.0,29.91,SE,125,9.0,16.0,75,0.00,,,0.00,weatherlink.com 1.10,2013-03-06 03:14:00,
2013-03-05 22:29:00,38.3,31.0,29.90,SE,143,9.0,15.0,74,0.00,,,0.00,weatherlink.com 1.10,2013-03-06 03:29:00,
2013-03-05 22:44:00,38.1,31.0,29.90,SE,139,7.0,11.0,75,0.00,,,0.00,weatherlink.com 1.10,2013-03-06 03:44:00,
2013-03-05 22:59:00,38.1,31.0,29.89,SE,136,5.0,15.0,75,0.00,,,0.00,weatherlink.com 1.10,2013-03-06 03:59:00,
2013-03-05 23:14:00,38.2,31.0,29.88,ESE,104,8.0,9.0,74,0.00,,,0.00,weatherlink.com 1.10,2013-03-06 04:14:00,
2013-03-05 23:29:00,38.3,31.0,29.87,East,98,7.0,8.0,74,0.00,,,0.00,weatherlink.com 1.10,2013-03-06 04:29:00,
2013-03-05 23:44:00,38.5,31.0,29.86,East,98,7.0,10.0,73,0.00,,,0.00,weatherlink.com 1.10,2013-03-06 04:44:00,
2013-03-05 23:59:00,38.9,30.0,29.85,East,87,8.0,11.0,71,0.00,,,0.00,weatherlink.com 1.10,2013-03-06 04:59:00,